ギブス彗星

C/2018 A6 ( Gibbs )

English version
Home page
Updated on February 3, 2018

---------------------------------------------------------------------

・ プロフィール

発見日 2018年1月15日
発見光度 19.3等
発見者 A. R. Gibbs (Mount Lemmon)

・ 写真集

・ 軌道要素

T 2019 May 24.53430 TT                                  MPCW
q   2.8592200            (2000.0)            P               Q
                   Peri.  262.83580     -0.17743800     +0.92665996
                   Node   340.31423     +0.27290042     -0.27719412
e   1.0            Incl.   79.65602     -0.94553747     -0.25389907
From 67 observations 2018 Jan. 15-23.

・ 光度変化

        m1 = 8.5 + 5 logΔ + 10.0 log r

---------------------------------------------------------------------

軌道要素はM.P.E.C. 2018-B155に掲載されたものです。
光度グラフはComet for Windowsで作成したものです。

---------------------------------------------------------------------

Copyright(C) Seiichi Yoshida (comet@aerith.net). All rights reserved.